Stations météo

Publicité
Le Luc, France (7675): Température de l'air & dewpoint: 12.02.2020 07:00:00 - 18.02.2020 07:00:00 (CET)Le Luc, France (7675): Température de l'air 5cm: 12.02.2020 07:00:00 - 18.02.2020 07:00:00 (CET)Le Luc, France (7675): Vitesse du vent & gusts: 12.02.2020 07:00:00 - 18.02.2020 07:00:00 (CET)Le Luc, France (7675): Direction du vent: 12.02.2020 07:00:00 - 18.02.2020 07:00:00 (CET)Le Luc, France (7675): reduced air pressure: 12.02.2020 07:00:00 - 18.02.2020 07:00:00 (CET)Le Luc, France (7675): visibility: 12.02.2020 07:00:00 - 18.02.2020 07:00:00 (CET)Le Luc, France (7675): Ensoleillement: 12.02.2020 07:00:00 - 18.02.2020 07:00:00 (CET)Le Luc, France (7675): Quantités de précipitations: 12.02.2020 07:00:00 - 18.02.2020 07:00:00 (CET)
Date & Time tt [°C] td [°C] tt 5cm [°C] ff [km/h] ff [knt] fx [km/h] fx [knt] dd ppp [hPa] vv [km] sd [min] rr [mm]
18.02.2020 07:00:00 - - - - - - - - - - - -
18.02.2020 06:00:00 10,1 2,9 8,9 26 14 56 30 W 1023,4 20 0 0,0
18.02.2020 05:00:00 10,5 3,1 9,2 40 22 61 33 W 1023,1 20 0 0,0
18.02.2020 04:00:00 10,4 3,2 8,9 23 13 44 24 W 1023,7 20 0 0,0
18.02.2020 03:00:00 10,7 3,7 9,6 25 14 48 26 WNW 1024,1 20 0 0,0
18.02.2020 02:00:00 11,3 4,5 9,8 26 14 44 24 WNW 1023,9 20 0 0,0
18.02.2020 01:00:00 11,9 7,6 10,2 11 6 32 17 W 1024,2 20 0 0,0
18.02.2020 00:00:00 12,5 9,5 11,1 14 8 23 12 SW 1024,0 20 0 0,0
17.02.2020 23:00:00 13,0 10,5 11,9 12 6 24 13 SW 1024,5 20 0 0,0
17.02.2020 22:00:00 13,0 10,9 11,9 13 7 28 15 WSW 1024,9 20 0 0,0
17.02.2020 21:00:00 13,2 11,1 11,7 21 12 33 18 W 1024,9 20 0 0,0
17.02.2020 20:00:00 12,4 11,3 11,1 10 5 15 8 W 1024,6 20 0 0,0
17.02.2020 19:00:00 12,2 11,3 11,3 7 4 16 9 WSW 1024,1 20 0 0,0
17.02.2020 18:00:00 12,8 11,5 11,9 9 5 20 11 WSW 1024,1 20 0 0,0
17.02.2020 17:00:00 13,1 12,2 12,9 5 3 11 6 WSW 1024,0 17 0 0,0
17.02.2020 16:00:00 12,9 12,0 12,5 0 0 19 10 N 1024,5 13 0 0,2
17.02.2020 15:00:00 12,7 11,4 13,0 0 0 9 5 N 1024,9 3,2 0 0,0
17.02.2020 14:00:00 12,4 11,3 12,2 2 1 20 11 N 1025,6 9 0 0,2
17.02.2020 13:00:00 12,0 11,1 11,8 0 0 8 4 N 1026,5 8 0 0,0
17.02.2020 12:00:00 11,5 10,9 11,3 0 0 13 7 N 1027,2 7 0 0,0
17.02.2020 11:00:00 11,1 10,5 11,3 2 1 6 4 NNW 1027,3 7 0 0,0
17.02.2020 10:00:00 10,4 9,9 10,0 0 0 20 11 N 1027,2 5 0 0,0
17.02.2020 09:00:00 9,5 9,2 9,1 0 0 4 2 N 1027,2 3,5 0 0,0
17.02.2020 08:00:00 9,2 8,9 8,7 0 0 4 2 N 1026,9 2,9 0 0,2
17.02.2020 07:00:00 8,9 8,6 8,6 0 0 4 2 N 1026,7 2,2 0 0,0
17.02.2020 06:00:00 9,0 8,7 8,6 0 0 3 2 N 1027,0 2,1 0 0,0
17.02.2020 05:00:00 9,2 8,7 8,8 0 0 5 3 N 1027,4 4,9 0 0,2
17.02.2020 04:00:00 9,2 8,7 8,6 0 0 3 2 N 1027,4 3,5 0 0,2
17.02.2020 03:00:00 8,9 8,4 8,4 2 1 3 1 N 1027,8 4,0 0 0,0
17.02.2020 02:00:00 8,7 8,2 8,4 0 0 5 3 N 1028,3 6 0 0,0
17.02.2020 01:00:00 9,0 8,2 8,6 4 2 4 2 ENE 1028,7 3,0 0 0,0
17.02.2020 00:00:00 8,9 8,0 8,4 0 0 5 3 N 1028,9 8 0 0,0
16.02.2020 23:00:00 8,5 7,7 8,3 0 0 7 4 N 1028,8 9 0 0,0
16.02.2020 22:00:00 9,6 8,7 9,0 3 2 4 2 ESE 1029,1 10 0 0,0
16.02.2020 21:00:00 9,6 8,7 8,9 0 0 2 1 N 1028,8 10 0 0,0
16.02.2020 20:00:00 9,9 8,8 8,6 0 0 2 1 N 1028,7 14 0 0,0
16.02.2020 19:00:00 11,0 9,3 9,7 2 1 5 3 S 1028,5 19 0 0,0
16.02.2020 18:00:00 11,8 9,5 11,2 0 0 4 2 N 1028,2 20 0 0,0
16.02.2020 17:00:00 12,2 9,2 13,0 0 0 7 4 N 1028,3 19 0 0,0
16.02.2020 16:00:00 11,7 9,6 11,7 4 2 7 4 W 1028,5 15 0 0,0
16.02.2020 15:00:00 11,1 8,5 11,7 3 2 11 6 SSW 1028,5 20 0 0,0
16.02.2020 14:00:00 11,3 8,7 11,9 3 2 8 4 E 1029,0 20 0 0,0
16.02.2020 13:00:00 9,8 8,2 10,8 0 0 6 3 N 1029,2 20 0 0,0
16.02.2020 12:00:00 8,4 7,5 9,3 0 0 10 5 N 1029,9 17 0 0,0
16.02.2020 11:00:00 7,4 6,8 7,1 2 1 4 2 N 1030,1 14 0 0,0
16.02.2020 10:00:00 6,5 6,2 6,3 0 0 8 4 N 1030,1 10 0 0,0
16.02.2020 09:00:00 6,2 6,1 5,8 3 2 6 3 ESE 1029,9 14 0 0,0
16.02.2020 08:00:00 5,6 5,5 5,2 0 0 6 4 N 1029,3 11 0 0,0
16.02.2020 07:00:00 5,3 5,2 4,7 3 1 5 3 WSW 1028,8 9 0 0,0
16.02.2020 06:00:00 4,6 4,6 4,1 0 0 8 4 N 1028,4 0,4 0 0,0
16.02.2020 05:00:00 4,5 4,4 3,6 2 1 5 3 W 1028,8 0,1 0 0,0
16.02.2020 04:00:00 4,1 3,8 2,9 2 1 5 3 ESE 1028,8 0,2 0 0,0
16.02.2020 03:00:00 4,4 4,1 4,2 2 1 6 3 E 1029,8 0,2 0 0,0
16.02.2020 02:00:00 4,5 4,2 2,1 2 1 5 3 NW 1028,9 0,1 0 0,0
16.02.2020 01:00:00 4,3 3,3 1,8 4 2 5 3 SSE 1028,8 15 0 0,0
16.02.2020 00:00:00 5,1 4,2 3,2 2 1 6 3 W 1028,7 15 0 0,0
15.02.2020 23:00:00 4,5 3,3 2,6 0 0 5 3 N 1029,2 20 0 0,0
15.02.2020 22:00:00 5,1 3,9 2,8 0 0 3 2 N 1029,2 20 0 0,0
15.02.2020 21:00:00 6,8 5,4 3,9 0 0 6 3 N 1028,9 18 0 0,0
15.02.2020 20:00:00 8,1 5,9 5,3 0 0 8 4 N 1027,6 19 0 0,0
15.02.2020 19:00:00 10,1 7,5 7,6 5 3 11 6 ENE 1027,7 23 0 0,0
15.02.2020 18:00:00 12,7 7,8 10,7 5 3 17 9 ESE 1027,1 30 41 0,0
15.02.2020 17:00:00 14,9 7,2 16,0 12 7 20 11 SE 1026,1 29 60 0,0
15.02.2020 16:00:00 15,8 7,5 19,3 13 7 25 14 SE 1026,2 28 60 0,0
15.02.2020 15:00:00 15,9 7,6 18,0 16 8 27 15 ESE 1026,2 23 55 0,0
15.02.2020 14:00:00 15,9 7,6 19,1 18 10 27 14 ESE 1026,7 20 60 0,0
15.02.2020 13:00:00 15,6 8,3 19,2 18 10 26 14 E 1027,5 20 60 0,0
15.02.2020 12:00:00 15,3 8,3 15,6 16 9 30 16 ESE 1027,9 19 50 0,0
15.02.2020 11:00:00 13,2 8,1 13,0 10 5 14 8 ENE 1027,7 19 55 0,0
15.02.2020 10:00:00 7,9 4,3 3,5 3 1 6 4 SE 1027,5 20 46 0,0
15.02.2020 09:00:00 1,6 0,3 0,2 0 0 6 4 N 1027,7 45 2 0,0
15.02.2020 08:00:00 -0,1 -1,1 -1,5 0 0 3 2 N 1027,0 43 0 0,0
15.02.2020 07:00:00 0,0 -1,0 -2,5 3 2 6 3 WSW 1026,4 49 0 0,0
15.02.2020 06:00:00 -0,9 -2,2 -2,2 2 1 5 3 E 1026,2 50 0 0,0
15.02.2020 05:00:00 -0,1 -1,4 -2,2 0 0 4 2 N 1026,0 50 0 0,0
15.02.2020 04:00:00 0,4 -1,4 -1,3 4 2 8 4 SE 1026,0 50 0 0,0
15.02.2020 03:00:00 0,8 -0,8 -1,1 2 1 7 4 W 1025,8 50 0 0,0
15.02.2020 02:00:00 1,9 0,1 -0,8 0 0 4 2 N 1025,6 50 0 0,0
15.02.2020 01:00:00 2,9 0,9 0,4 3 2 8 4 W 1025,0 50 0 0,0
15.02.2020 00:00:00 3,4 1,1 1,2 4 2 6 3 ESE 1024,7 50 0 0,0
14.02.2020 23:00:00 5,5 2,0 1,8 3 2 6 4 W 1024,2 50 0 0,0
14.02.2020 22:00:00 6,1 1,6 3,3 2 1 6 3 NW 1023,8 50 0 0,0
14.02.2020 21:00:00 9,2 2,3 5,0 0 0 13 7 N 1022,9 50 0 0,0
14.02.2020 20:00:00 12,3 2,7 9,9 10 5 18 10 SW 1021,8 50 0 0,0
14.02.2020 19:00:00 13,9 2,5 11,7 12 6 20 11 WSW 1021,0 50 0 0,0
14.02.2020 18:00:00 15,9 2,7 14,5 16 9 31 17 WSW 1019,9 50 40 0,0
14.02.2020 17:00:00 18,2 3,3 18,8 16 8 27 14 W 1019,1 50 60 0,0
14.02.2020 16:00:00 19,3 2,2 22,7 16 9 32 17 W 1018,7 49 60 0,0
14.02.2020 15:00:00 19,1 1,1 21,9 22 12 41 22 NW 1018,7 48 60 0,0
14.02.2020 14:00:00 18,5 1,9 20,0 27 15 49 26 WNW 1018,8 44 60 0,0
14.02.2020 13:00:00 17,4 1,8 18,8 35 19 62 34 WNW 1018,8 44 60 0,0
14.02.2020 12:00:00 16,2 1,9 17,6 37 20 64 35 WNW 1018,9 40 60 0,0
14.02.2020 11:00:00 14,7 1,6 15,1 34 19 73 39 WNW 1018,6 41 60 0,0
14.02.2020 10:00:00 13,1 2,0 13,8 41 22 63 34 W 1018,0 44 60 0,0
14.02.2020 09:00:00 11,8 1,7 9,9 36 20 62 34 W 1017,9 43 57 0,0
14.02.2020 08:00:00 10,6 1,4 9,2 29 16 49 26 WNW 1017,9 50 0 0,0
14.02.2020 07:00:00 10,6 1,7 9,4 32 17 50 27 W 1017,6 47 0 0,0
14.02.2020 06:00:00 11,0 1,8 9,6 23 13 42 23 WSW 1017,3 42 0 0,0
14.02.2020 05:00:00 11,5 2,0 10,0 19 10 50 27 SW 1016,7 33 0 0,0
14.02.2020 04:00:00 11,8 2,3 10,3 27 15 60 32 W 1016,2 37 0 0,0
14.02.2020 03:00:00 11,8 3,5 10,3 29 16 53 28 W 1016,9 32 0 0,0
14.02.2020 02:00:00 11,6 6,9 9,9 21 11 45 25 W 1017,5 44 0 0,0
14.02.2020 01:00:00 12,0 7,3 10,6 26 14 46 25 W 1017,6 44 0 0,0
14.02.2020 00:00:00 12,0 8,3 9,5 26 14 41 22 WSW 1017,3 36 0 0,0
13.02.2020 23:00:00 10,7 8,5 9,5 16 9 32 17 W 1017,9 26 0 0,0
13.02.2020 22:00:00 11,3 9,0 10,1 16 9 30 16 WSW 1017,8 26 0 0,0
13.02.2020 21:00:00 11,4 9,5 10,1 15 8 21 11 W 1018,2 20 0 0,0
13.02.2020 20:00:00 11,9 9,5 10,0 5 3 10 6 W 1018,3 30 0 0,0
13.02.2020 19:00:00 12,5 9,5 11,4 8 5 15 8 SW 1019,1 30 0 0,0
13.02.2020 18:00:00 12,9 9,9 11,9 6 4 20 11 SW 1018,7 36 0 0,0
13.02.2020 17:00:00 13,2 9,8 13,2 10 5 16 9 WSW 1018,9 33 0 0,0
13.02.2020 16:00:00 13,4 9,6 14,1 11 6 22 12 SW 1019,4 41 8 0,0
13.02.2020 15:00:00 14,0 9,2 16,3 12 7 21 12 SW 1019,2 39 37 0,0
13.02.2020 14:00:00 14,2 8,6 15,6 13 7 25 13 SW 1020,1 43 7 0,0
13.02.2020 13:00:00 15,1 5,6 15,8 7 4 16 9 WNW 1020,7 37 13 0,0
13.02.2020 12:00:00 13,8 2,1 18,0 2 1 18 10 NE 1021,8 20 54 0,0
13.02.2020 11:00:00 11,2 -0,9 13,8 3 1 11 6 NNE 1022,3 33 60 0,0
13.02.2020 10:00:00 8,2 -2,5 8,0 4 2 10 5 SE 1022,4 42 60 0,0
13.02.2020 09:00:00 5,6 -2,7 2,9 3 2 15 8 E 1021,9 45 60 0,0
13.02.2020 08:00:00 3,4 -4,3 1,7 7 4 16 9 NW 1021,9 20 2 0,0
13.02.2020 07:00:00 5,0 -4,6 2,3 4 2 18 10 W 1021,1 50 0 0,0
13.02.2020 06:00:00 5,8 -4,9 4,3 11 6 30 16 WSW 1021,0 50 0 0,0
13.02.2020 05:00:00 7,6 -5,8 5,3 21 12 30 16 W 1020,8 50 0 0,0
13.02.2020 04:00:00 8,5 -5,7 6,6 21 11 40 22 W 1020,9 20 0 0,0
13.02.2020 03:00:00 8,0 -5,1 6,6 30 16 51 28 W 1021,2 50 0 0,0
13.02.2020 02:00:00 8,5 -5,4 6,9 19 10 35 19 WSW 1021,1 50 0 0,0
13.02.2020 01:00:00 8,7 -5,6 5,4 15 8 31 17 WSW 1021,4 50 0 0,0
13.02.2020 00:00:00 8,4 -4,8 3,1 7 4 32 18 SW 1021,5 50 0 0,0
12.02.2020 23:00:00 6,9 -3,9 3,2 4 2 7 4 ESE 1021,6 50 0 0,0
12.02.2020 22:00:00 8,2 -3,7 4,8 2 1 16 8 NE 1021,5 50 0 0,0
12.02.2020 21:00:00 8,7 -2,9 5,4 5 3 16 9 SE 1021,4 50 0 0,0
12.02.2020 20:00:00 9,8 -2,5 6,1 2 1 21 11 WSW 1021,0 50 0 0,0
12.02.2020 19:00:00 11,3 -2,2 9,7 13 7 25 14 W 1020,5 50 0 0,0
12.02.2020 18:00:00 12,9 -2,2 11,5 21 11 41 22 W 1019,4 50 6 0,0
12.02.2020 17:00:00 14,9 -4,0 14,8 27 15 49 27 W 1019,0 50 58 0,0
12.02.2020 16:00:00 15,9 -3,1 18,2 32 18 45 24 W 1018,9 48 60 0,0
12.02.2020 15:00:00 16,3 -2,8 18,8 23 13 41 22 W 1019,2 36 60 0,0
12.02.2020 14:00:00 16,1 -3,4 19,2 21 12 39 21 W 1019,7 45 60 0,0
12.02.2020 13:00:00 15,7 -4,8 18,3 24 13 44 24 W 1020,5 40 60 0,0
12.02.2020 12:00:00 14,2 -4,6 17,0 24 13 47 26 W 1021,4 20 60 0,0
12.02.2020 11:00:00 12,7 -4,0 14,4 29 16 48 26 W 1021,4 48 60 0,0
12.02.2020 10:00:00 11,2 -3,3 11,6 24 13 45 24 W 1021,8 46 60 0,0
12.02.2020 09:00:00 10,0 -4,0 8,5 25 13 39 21 W 1021,5 48 60 0,0
12.02.2020 08:00:00 9,0 -4,9 6,9 22 12 38 21 W 1020,9 50 0 0,0
12.02.2020 07:00:00 8,7 -4,5 6,9 18 10 30 16 WSW 1020,3 50 0 0,0

tt = Température de l'air
td = dewpoint
tt 5cm = Température de l'air 5cm
ff = Vitesse du vent
fx = gusts
dd = Direction du vent
ppp = reduced air pressure
vv = visibility
sd = Ensoleillement
rr = Quantités de précipitations

stations d'obs. à proximité